This is the latest recevied weather packets stored in our database for station/object OK1FPA-15. If no packets are shown the sender has not sent any weather packets the latest 10 day(s).
| Time | Temp. | Humidity | Pressure | Rain* | Wind** | Luminosity | Snow |
|---|---|---|---|---|---|---|---|
| 1777627648 | 18.33° C | 36% | 1029.8 hPa | - | - | - | - |
| 1777627048 | 18.33° C | 36% | 1029.8 hPa | - | - | - | - |
| 1777626448 | 17.78° C | 36% | 1029.8 hPa | - | - | - | - |
| 1777625848 | 17.78° C | 37% | 1029.9 hPa | - | - | - | - |
| 1777625248 | 17.78° C | 39% | 1029.9 hPa | - | - | - | - |
| 1777624648 | 16.67° C | 39% | 1030.1 hPa | - | - | - | - |
| 1777624048 | 16.67° C | 41% | 1030.1 hPa | - | - | - | - |
| 1777623448 | 16.11° C | 43% | 1030.2 hPa | - | - | - | - |
| 1777622848 | 15° C | 47% | 1030.3 hPa | - | - | - | - |
| 1777622248 | 14.44° C | 50% | 1030.4 hPa | - | - | - | - |
| 1777621648 | 13.33° C | 50% | 1030.4 hPa | - | - | - | - |
| 1777621049 | 12.78° C | 55% | 1030.4 hPa | - | - | - | - |
| 1777620448 | 11.67° C | 56% | 1030.5 hPa | - | - | - | - |
| 1777619848 | 10.56° C | 58% | 1030.7 hPa | - | - | - | - |
| 1777619248 | 10° C | 60% | 1030.8 hPa | - | - | - | - |
| 1777618648 | 9.44° C | 61% | 1030.7 hPa | - | - | - | - |
| 1777618049 | 8.89° C | 64% | 1030.7 hPa | - | - | - | - |
| 1777617448 | 7.78° C | 66% | 1030.9 hPa | - | - | - | - |
| 1777616848 | 7.22° C | 69% | 1030.9 hPa | - | - | - | - |
| 1777616249 | 6.11° C | 71% | 1031 hPa | - | - | - | - |
| 1777615648 | 5.56° C | 73% | 1031 hPa | - | - | - | - |
| 1777615048 | 5° C | 73% | 1031 hPa | - | - | - | - |
| 1777614448 | 4.44° C | 75% | 1031 hPa | - | - | - | - |
| 1777613848 | 4.44° C | 75% | 1031.1 hPa | - | - | - | - |
| 1777613248 | 4.44° C | 74% | 1031.1 hPa | - | - | - | - |
* Rain since midnight (hover to see other rain measurements)
** Current wind speed in m/s (hover to see current wind gust speed)